Regional Weather Roundup
Issued by NWS Bismarck, ND

Home | Current Version | Previous Version | Text Only | Print | Product List | Glossary On
Versions: 1 2 3 4 5 6 7 8 9 10 11 12 13 14 15 16 17 18 19 20 21 22 23 24 25 26 27 28 29 30 31 32 33 34 35 36 37 38 39 40 41 42 43 44 45 46 47 48 49 50
457
ASUS43 KBIS 201410
RWRBIS

NWR BROADCAST TEXT
NATIONAL WEATHER SERVICE BISMARCK ND
900 AM CDT THU JUL 20 2017

NOTE: "FAIR" INDICATES FEW OR NO CLOUDS BELOW 12,000 FEET WITH NO
SIGNIFICANT WEATHER AND/OR OBSTRUCTIONS TO VISIBILITY.


CITY           SKY/WX    TMP DP  RH WIND       PRES   REMARKS
WILLISTON        N/A    N/A N/A N/A MISG      29.96F
MINOT          MOSUNNY   71  59  65 E9        30.01S
MINOT AFB      SUNNY     66  60  80 SE9       30.00S
BISMARCK       CLOUDY    71  65  81 CALM      30.04S
DICKINSON      SUNNY     77  62  59 S17       29.99S
GARRISON         N/A     71  64  78 E8        30.00F
HETTINGER ARPT CLOUDY    71  64  78 S6        30.05F
JAMESTOWN      CLOUDY    72  65  78 NE8       30.03R
HAZEN          FAIR      73  63  68 SE6       30.02S
LINTON         FAIR     N/A N/A N/A CALM      30.07R
MANDAN         FAIR      70  64  83 SE8       30.05R
STANLEY        FAIR      68  64  88 SE13      30.03F
TIOGA          FAIR      70  64  83 SE12      30.00F
WATFORD CITY   FAIR      72  59  64 E7        29.97F
$$

CITY           SKY/WX    TMP DP  RH WIND       PRES   REMARKS
GRAND FORKS    MOSUNNY   67  61  81 CALM      30.02R
GRAND FORKS AF MOSUNNY   66  60  80 N3        30.04R
DEVILS LAKE    MOSUNNY   67  58  72 SE9       30.04S
FARGO          CLOUDY    70  63  78 NE8       30.02R
CAVALIER       FAIR      64  59  82 N5        30.02S
GRAFTON        FAIR      66  61  82 NE3       30.04S
GWINNER        SUNNY     70  66  88 E3        30.03R
LANGDON        FAIR      64  63  94 CALM      30.05R
ROLLA            N/A     64  57  77 CALM      30.06R
$$

CITY           SKY/WX    TMP DP  RH WIND       PRES   REMARKS
ABERDEEN       CLOUDY    69  69 100 SE3       30.04R FOG
MOBRIDGE       FOG       70  69  97 S5        30.03R VSB 1/4
BUFFALO          N/A     75  66  73 SE17      29.97F
RAPID CITY     SUNNY     74  66  76 SE3       30.09S
SIDNEY         CLOUDY    72  58  61 E3        29.96S
WOLF POINT     CLOUDY    67  54  63 E7        29.96S
GLENDIVE       SUNNY     76  57  51 CALM      29.97S
MILES CITY     SUNNY     81  55  40 SE12      29.92S
BAKER          CLOUDY    77  63  61 SE20      30.01S
$$

CITY           SKY/WX    TMP DP  RH WIND       PRES   REMARKS
BILLINGS       MOSUNNY   67  45  45 SW8       29.96S
GREAT FALLS    SUNNY     65  35  33 SW8       29.96S
REGINA         MOSUNNY   61  50  67 SE10      30.00R
ESTEVAN        MOSUNNY   66  52  59 SW5       30.01S
$$





USA.gov is the U.S. government's official web portal to all federal, state and local government web resources and services.